GW1495 Weather Reports


time (UTC)temp
C
wind
direction
speed
KPH
gust
KPH
rain 1hr
cm
rain 24hr
cm
rain mn
cm
humidity
%
barometer
mb
20260508170941 18 330 3.2 3.2 0.00 0.00 0.00 33 1009.4
20260508170314 19 308 4.8 4.8 0.00 0.00 0.00 34 1009.4
20260508165709 21 250 3.2 3.2 0.00 0.00 0.00 39 1009.8
20260508165120 20 255 3.2 3.2 0.00 0.00 0.00 39 1009.8
20260508164533 20 188 4.8 4.8 0.00 0.00 0.00 37 1009.8
20260508163331 20 104 4.8 4.8 0.00 0.00 0.00 47 1009.8
20260508162723 18 116 3.2 3.2 0.00 0.00 0.00 36 1010.4
20260508162130 18 126 4.8 4.8 0.00 0.00 0.00 38 1010.4
20260508161515 18 284 6.4 8.0 0.00 0.00 0.00 35 1010.4
20260508160931 18 120 4.8 4.8 0.00 0.00 0.00 38 1010.4
20260508160338 18 141 0.0 0.0 0.00 0.00 0.00 41 1010.4
20260508155110 17 313 3.2 3.2 0.00 0.00 0.00 44 1010.8
20260508154521 17 130 1.6 1.6 0.00 0.00 0.00 45 1010.8
20260508153937 17 258 0.0 0.0 0.00 0.00 0.00 54 1010.8
20260508153342 16 325 1.6 1.6 0.00 0.00 0.00 58 1010.8
20260508152746 17 153 1.6 1.6 0.00 0.00 0.00 59 1010.8
20260508151536 16 316 3.2 3.2 0.00 0.00 0.00 65 1010.8
20260508150945 15 316 3.2 3.2 0.00 0.00 0.00 53 1010.8
20260508145746 15 287 1.6 1.6 0.00 0.00 0.00 59 1010.8
20260508145148 15 156 1.6 1.6 0.00 0.00 0.00 71 1010.8
20260508143942 14 156 3.2 3.2 0.00 0.00 0.00 71 1010.8
20260508142727 13 156 1.6 1.6 0.00 0.00 0.00 77 1011.1
20260508142149 12 156 0.0 0.0 0.00 0.00 0.00 77 1011.1
20260508141518 12 156 3.2 3.2 0.00 0.00 0.00 78 1011.1
20260508140936 11 156 0.0 0.0 0.00 0.00 0.00 80 1011.1
20260508135748 11 156 1.6 1.6 0.00 0.00 0.00 83 1011.5
20260508135146 10 156 1.6 1.6 0.00 0.00 0.00 84 1011.5
20260508134522 10 156 0.0 0.0 0.00 0.00 0.00 84 1011.5
20260508133916 9 156 0.0 0.0 0.00 0.00 0.00 86 1011.5
20260508133312 8 156 3.2 3.2 0.00 0.00 0.00 86 1011.5
20260508132726 7 158 1.6 1.6 0.00 0.00 0.00 88 1011.5
20260508132122 7 158 1.6 1.6 0.00 0.00 0.00 91 1011.5
20260508130308 6 158 1.6 1.6 0.00 0.00 0.00 92 1011.5
20260508125126 6 157 3.2 3.2 0.00 0.00 0.00 95 1011.5
20260508123936 5 158 0.0 0.0 0.00 0.00 0.00 97 1011.8
20260508123350 5 159 0.0 0.0 0.00 0.00 0.00 97 1011.8
20260508122731 5 158 0.0 0.0 0.00 0.00 0.00 97 1011.8
20260508122120 4 159 3.2 3.2 0.00 0.00 0.00 97 1011.8
20260508121537 4 159 3.2 3.2 0.00 0.00 0.00 98 1011.8
20260508120920 3 158 0.0 0.0 0.00 0.00 0.00 98 1011.8
20260508115710 3 158 0.0 0.0 0.00 0.00 0.00 98 1011.5
20260508115148 3 158 3.2 3.2 0.00 0.00 0.00 98 1011.5
20260508114519 3 158 3.2 3.2 0.00 0.00 0.00 98 1011.5
20260508113930 2 158 3.2 3.2 0.00 0.00 0.00 98 1011.5
20260508113316 2 160 1.6 1.6 0.00 0.00 0.00 98 1011.5
20260508112719 2 159 3.2 3.2 0.00 0.00 0.00 98 1011.1
20260508112143 2 159 3.2 3.2 0.00 0.00 0.00 99 1011.1
20260508111542 2 159 0.0 0.0 0.00 0.00 0.00 99 1011.1
20260508110922 2 162 0.0 0.0 0.00 0.00 0.00 99 1011.1
20260508110326 2 162 3.2 3.2 0.00 0.00 0.00 99 1011.1
20260508105142 2 162 3.2 3.2 0.00 0.00 0.00 99 1011.1
20260508103936 2 162 3.2 3.2 0.00 0.00 0.00 99 1010.8
20260508103338 2 162 0.0 0.0 0.00 0.00 0.00 99 1010.8
20260508102715 2 162 3.2 3.2 0.00 0.00 0.00 99 1010.8
20260508102115 2 162 3.2 3.2 0.00 0.00 0.00 99 1010.8
20260508101512 2 162 3.2 3.2 0.00 0.00 0.00 99 1010.4
20260508100938 2 162 3.2 3.2 0.00 0.00 0.00 99 1010.4
20260508100331 2 162 3.2 3.2 0.00 0.00 0.00 98 1010.4
20260508095748 2 162 3.2 3.2 0.00 0.00 0.00 98 1010.4
20260508095130 2 162 3.2 3.2 0.00 0.00 0.00 98 1010.4
20260508094522 2 162 3.2 3.2 0.00 0.00 0.00 98 1010.4
20260508093943 3 162 3.2 3.2 0.00 0.00 0.00 98 1010.4
20260508092722 3 162 3.2 3.2 0.00 0.00 0.00 98 1010.4
20260508092142 3 163 3.2 3.2 0.00 0.00 0.00 98 1010.4
20260508091528 3 164 3.2 3.2 0.00 0.00 0.00 98 1010.4
20260508090932 3 264 3.2 3.2 0.00 0.00 0.00 98 1010.1
20260508085139 3 269 3.2 3.2 0.00 0.00 0.00 98 1010.1
20260508084547 3 269 3.2 3.2 0.00 0.00 0.00 98 1010.1
20260508083912 3 269 3.2 3.2 0.00 0.00 0.00 98 1010.4
20260508083313 3 269 1.6 1.6 0.00 0.00 0.00 98 1010.4
20260508082735 3 270 0.0 0.0 0.00 0.00 0.00 98 1010.1
20260508082150 3 270 1.6 1.6 0.00 0.00 0.00 98 1010.1
20260508081537 3 270 0.0 0.0 0.00 0.00 0.00 98 1010.1
20260508080328 3 269 3.2 3.2 0.00 0.00 0.00 98 1010.1
20260508075731 3 270 1.6 1.6 0.00 0.00 0.00 98 1010.1
20260508075120 3 270 3.2 3.2 0.00 0.00 0.00 98 1010.1
20260508074529 3 270 3.2 3.2 0.00 0.00 0.00 98 1010.1
20260508073327 3 270 0.0 0.0 0.00 0.00 0.00 98 1009.8
20260508072733 3 270 0.0 0.0 0.00 0.00 0.00 98 1010.1
20260508072115 3 270 1.6 1.6 0.00 0.00 0.00 98 1010.1
20260508071537 3 270 3.2 3.2 0.00 0.00 0.00 98 1010.1
20260508070951 3 270 3.2 3.2 0.00 0.00 0.00 98 1009.8
20260508070338 3 282 3.2 3.2 0.00 0.00 0.00 97 1009.8
20260508065738 4 285 0.0 0.0 0.00 0.00 0.00 97 1009.8
20260508065133 4 282 0.0 0.0 0.00 0.00 0.00 97 1009.8
20260508064520 3 282 0.0 0.0 0.00 0.00 0.00 97 1009.8
20260508063925 3 288 1.6 1.6 0.00 0.00 0.00 96 1009.8
20260508063318 4 288 3.2 3.2 0.00 0.00 0.00 96 1009.8
20260508062742 4 288 3.2 3.2 0.00 0.00 0.00 96 1010.1
20260508062146 4 288 3.2 3.2 0.00 0.00 0.00 95 1010.1
20260508061530 3 288 1.6 1.6 0.00 0.00 0.00 95 1010.1
20260508060909 4 288 3.2 3.2 0.00 0.00 0.00 95 1010.1
20260508060341 3 288 3.2 3.2 0.00 0.00 0.00 95 1010.1
20260508055751 4 288 0.0 0.0 0.00 0.00 0.00 95 1010.1
20260508055141 3 288 0.0 0.0 0.00 0.00 0.00 95 1010.1
20260508054544 3 288 3.2 3.2 0.00 0.00 0.00 96 1010.1
20260508052738 3 288 0.0 0.0 0.00 0.00 0.00 95 1009.4
20260508052132 3 288 0.0 0.0 0.00 0.00 0.00 95 1009.4
20260508051526 3 288 0.0 0.0 0.00 0.00 0.00 94 1009.4
20260508050945 4 288 0.0 0.0 0.00 0.00 0.00 94 1009.8
20260508050309 4 288 0.0 0.0 0.00 0.00 0.00 94 1009.8
20260508045724 4 288 0.0 0.0 0.00 0.00 0.00 94 1009.4
20260508045128 4 288 0.0 0.0 0.00 0.00 0.00 94 1009.4
20260508044542 4 288 0.0 0.0 0.00 0.00 0.00 94 1009.4
20260508043936 5 288 0.0 0.0 0.00 0.00 0.00 94 1009.1
20260508043347 5 288 0.0 0.0 0.00 0.00 0.00 94 1009.1
20260508042723 5 288 3.2 3.2 0.00 0.00 0.00 94 1009.1
20260508042141 5 288 0.0 0.0 0.00 0.00 0.00 93 1009.1
20260508041532 5 288 0.0 0.0 0.00 0.00 0.00 93 1009.1
20260508040318 5 288 0.0 0.0 0.00 0.00 0.00 93 1009.4
20260508035120 5 288 0.0 0.0 0.00 0.00 0.03 93 1009.1
20260508034526 5 288 3.2 3.2 0.00 0.00 0.03 93 1009.1
20260508033916 5 288 1.6 1.6 0.00 0.00 0.03 93 1009.1
20260508033321 6 288 3.2 3.2 0.00 0.00 0.03 93 1009.1
20260508032734 5 288 0.0 0.0 0.00 0.00 0.03 93 1009.1
20260508032147 6 288 0.0 0.0 0.00 0.00 0.03 93 1009.1
20260508031526 6 288 0.0 0.0 0.00 0.00 0.03 93 1009.1
20260508030931 6 288 0.0 0.0 0.00 0.00 0.03 93 1009.1
20260508030311 6 288 0.0 0.0 0.00 0.00 0.03 93 1009.1
20260508025719 6 288 0.0 0.0 0.00 0.00 0.03 93 1008.8
20260508025114 6 288 0.0 0.0 0.00 0.00 0.03 92 1008.8
20260508024525 6 288 0.0 0.0 0.00 0.00 0.03 92 1008.8
20260508023946 7 288 0.0 0.0 0.00 0.00 0.03 92 1008.8
20260508023341 7 288 0.0 0.0 0.00 0.00 0.03 91 1008.8
20260508022723 7 288 0.0 0.0 0.00 0.00 0.03 91 1008.1
20260508021515 7 288 0.0 0.0 0.00 0.00 0.03 91 1008.4
20260508020945 7 288 3.2 3.2 0.00 0.00 0.03 90 1008.4
20260508020349 7 288 3.2 3.2 0.00 0.00 0.03 90 1008.4
20260508015738 7 288 1.6 1.6 0.00 0.00 0.03 90 1007.7
20260508015145 7 288 3.2 3.2 0.00 0.00 0.03 90 1007.7
20260508014517 8 288 1.6 1.6 0.00 0.00 0.03 90 1007.7
20260508012725 8 291 0.0 0.0 0.00 0.00 0.03 88 1007.4
20260508011528 8 291 0.0 0.0 0.00 0.00 0.03 88 1007.4
20260508010935 9 291 0.0 0.0 0.00 0.00 0.03 87 1007.1
20260508010349 9 291 0.0 0.0 0.00 0.00 0.03 87 1007.1
20260508005736 9 291 0.0 0.0 0.00 0.00 0.03 86 1007.1
20260508003908 10 291 0.0 0.0 0.00 0.00 0.03 82 1006.7
20260508003340 10 291 0.0 0.0 0.00 0.00 0.03 83 1006.7
20260508002734 10 291 0.0 0.0 0.00 0.00 0.03 81 1006.7
20260508002110 11 291 3.2 3.2 0.00 0.00 0.03 81 1006.7
20260508001532 11 291 0.0 0.0 0.00 0.00 0.03 78 1006.7
20260508000949 11 291 0.0 0.0 0.00 0.00 0.03 77 1006.4
20260508000335 11 291 0.0 0.0 0.00 0.00 0.03 78 1006.4
20260507235747 11 291 0.0 0.0 0.00 0.00 0.03 79 1006.4
20260507235119 12 291 0.0 0.0 0.00 0.00 0.03 76 1006.4
20260507234551 12 291 0.0 0.0 0.00 0.00 0.03 79 1006.4
20260507233938 12 291 1.6 1.6 0.00 0.00 0.03 81 1006.0
20260507233347 12 291 0.0 0.0 0.00 0.00 0.03 80 1006.0
20260507231535 13 236 0.0 0.0 0.00 0.00 0.03 78 1006.0
20260507225744 13 241 3.2 3.2 0.00 0.00 0.03 76 1006.0
20260507225120 14 241 3.2 3.2 0.00 0.00 0.03 74 1006.0
20260507224527 14 240 1.6 1.6 0.00 0.00 0.03 75 1006.0
20260507223918 14 241 0.0 0.0 0.00 0.00 0.03 74 1006.0
20260507223338 14 241 0.0 0.0 0.00 0.00 0.03 74 1006.0
20260507222719 15 241 0.0 0.0 0.00 0.00 0.03 69 1006.0
20260507221516 15 46 0.0 0.0 0.00 0.00 0.03 67 1005.7
20260507220312 16 49 0.0 0.0 0.00 0.00 0.03 62 1005.7
20260507215738 16 48 0.0 0.0 0.00 0.00 0.03 71 1005.4
20260507215144 16 48 3.2 3.2 0.00 0.00 0.03 64 1005.4
20260507213944 15 299 3.2 3.2 0.00 0.00 0.03 61 1005.7
20260507212737 16 120 8.0 8.0 0.00 0.00 0.03 60 1005.4
20260507211532 17 228 4.8 4.8 0.00 0.00 0.03 48 1005.4
20260507210928 17 205 1.6 1.6 0.00 0.00 0.03 55 1005.0
20260507210344 17 193 3.2 3.2 0.00 0.00 0.03 53 1005.0
20260507204547 18 8 3.2 3.2 0.00 0.00 0.03 49 1005.0
20260507202737 17 205 1.6 1.6 0.00 0.00 0.03 45 1005.4
20260507202152 18 217 1.6 1.6 0.00 0.00 0.03 47 1005.4
20260507201538 17 193 3.2 3.2 0.00 0.00 0.03 52 1005.4
20260507200938 17 126 4.8 4.8 0.00 0.00 0.03 51 1005.7
20260507195752 17 282 4.8 4.8 0.00 0.00 0.03 49 1005.4
20260507195151 16 264 0.0 0.0 0.00 0.00 0.03 52 1005.4
20260507194514 17 132 1.6 1.6 0.00 0.00 0.03 51 1005.7
20260507193951 17 252 3.2 3.2 0.00 0.00 0.03 51 1005.7
20260507192732 17 72 3.2 3.2 0.00 0.00 0.03 51 1006.0
20260507192146 17 330 4.8 4.8 0.00 0.00 0.03 51 1006.0
20260507191535 17 252 4.8 4.8 0.00 0.00 0.03 52 1006.0
20260507190936 17 96 3.2 3.2 0.00 0.00 0.03 53 1006.0
20260507185724 16 233 8.0 9.7 0.00 0.00 0.03 55 1006.4
20260507185150 15 202 3.2 3.2 0.00 0.00 0.03 60 1006.4
20260507184549 15 281 3.2 3.2 0.00 0.00 0.03 56 1006.4
20260507183952 16 250 4.8 4.8 0.00 0.00 0.03 56 1006.4
20260507183308 15 258 0.0 0.0 0.00 0.00 0.03 63 1006.4
20260507182714 15 240 3.2 3.2 0.00 0.00 0.03 59 1006.7
20260507182150 15 217 3.2 3.2 0.00 0.00 0.03 65 1006.7
20260507181510 15 258 3.2 3.2 0.00 0.00 0.03 65 1006.4
20260507180928 15 258 0.0 0.0 0.00 0.00 0.03 62 1006.4
20260507180324 15 104 3.2 3.2 0.00 0.00 0.03 58 1006.4
20260507174520 14 160 3.2 3.2 0.00 0.00 0.03 63 1006.7
20260507173945 14 156 3.2 3.2 0.00 0.00 0.03 64 1006.7
20260507172732 14 146 3.2 3.2 0.00 0.00 0.03 60 1006.7
20260507172129 14 178 4.8 6.4 0.00 0.00 0.03 62 1006.7